Location: Newark
(0.5300°S, 127.4800°E)
Time: 22:22:58
(UTC+00:00)

A-11 Canister half - Pass Details

Date: 18 September 2019
Orbit: 1514 x 1686 km, 47.2° (Epoch: 14 October)

Event Time Altitude Azimuth Distance (km) Brightness Sun altitude
Rises 10:24:57 0° 329° (NNW) 4,723 12.0 -15.2°
Reaches altitude 10° 10:28:03 10° 332° (NNW) 3,762 11.4 -15.9°
Maximum altitude 10:37:28 61° 51° (NE) 1,801 9.1 -18.3°
Enters shadow 10:44:33 21° 124° (SE) 3,107 10.1 -20.1°
Drops below altitude 10° 10:47:15 10° 129° (SE) 3,904 - -20.7°
Sets 10:50:29 0° 132° (SE) 4,910 - -21.5°
